| time (UTC) | temp F | wind direction | speed MPH | gust MPH | rain 1hr in | rain 24hr in | rain mn in | humidity % | barometer mb |
| 20260903111159 | 55 | 325 | 0.0 | 5.0 | 0.00 | 0.03 | 0.03 | 80 | 1018.0 |
| 20260903110656 | 55 | 49 | 1.0 | 5.0 | 0.00 | 0.03 | 0.03 | 80 | 1018.0 |
| 20260903110159 | 55 | 227 | 1.0 | 5.0 | 0.00 | 0.03 | 0.03 | 80 | 1018.0 |
| 20260903105656 | 55 | 345 | 0.0 | 5.0 | 0.00 | 0.03 | 0.03 | 80 | 1018.0 |
| 20260903105150 | 55 | 307 | 0.0 | 4.0 | 0.00 | 0.03 | 0.03 | 80 | 1018.0 |
| 20260903104658 | 55 | 308 | 0.0 | 5.0 | 0.00 | 0.03 | 0.03 | 80 | 1017.9 |
| 20260903104203 | 55 | 90 | 0.0 | 5.0 | 0.00 | 0.03 | 0.03 | 81 | 1017.7 |
| 20260903103653 | 55 | 16 | 0.0 | 5.0 | 0.00 | 0.03 | 0.03 | 81 | 1017.6 |
| 20260903103144 | 55 | 214 | 0.0 | 5.0 | 0.00 | 0.03 | 0.03 | 81 | 1017.6 |
| 20260903102642 | 55 | 321 | 0.0 | 5.0 | 0.00 | 0.03 | 0.03 | 81 | 1017.7 |
| 20260903100910 | 55 | 43 | 0.0 | 5.0 | 0.00 | 0.03 | 0.03 | 81 | 1017.5 |
| 20260903100416 | 55 | 359 | 1.0 | 5.0 | 0.00 | 0.03 | 0.03 | 81 | 1017.4 |
| 20260903095921 | 55 | 89 | 1.0 | 5.0 | 0.00 | 0.03 | 0.03 | 81 | 1017.3 |
| 20260903095422 | 55 | 51 | 0.0 | 3.0 | 0.00 | 0.03 | 0.03 | 82 | 1017.2 |
| 20260903094906 | 55 | 321 | 0.0 | 3.0 | 0.00 | 0.03 | 0.03 | 82 | 1017.1 |
| 20260903094405 | 56 | 314 | 0.0 | 3.0 | 0.00 | 0.03 | 0.03 | 82 | 1017.0 |
| 20260903093849 | 56 | 279 | 0.0 | 3.0 | 0.00 | 0.03 | 0.03 | 82 | 1016.9 |
| 20260903093344 | 56 | 275 | 0.0 | 3.0 | 0.00 | 0.03 | 0.03 | 81 | 1016.8 |
| 20260903092206 | 56 | 279 | 0.0 | 4.0 | 0.00 | 0.03 | 0.03 | 80 | 1016.7 |
| 20260903091102 | 56 | 248 | 0.0 | 2.0 | 0.00 | 0.03 | 0.03 | 80 | 1016.6 |
| 20260903090558 | 56 | 262 | 0.0 | 1.0 | 0.00 | 0.03 | 0.03 | 79 | 1016.6 |
| 20260903090051 | 56 | 262 | 0.0 | 4.0 | 0.00 | 0.03 | 0.03 | 79 | 1016.5 |
| 20260903085558 | 56 | 44 | 0.0 | 3.0 | 0.00 | 0.03 | 0.03 | 79 | 1016.4 |
| 20260903085043 | 56 | 314 | 0.0 | 6.0 | 0.00 | 0.03 | 0.03 | 79 | 1016.3 |
| 20260903083916 | 56 | 40 | 0.0 | 6.0 | 0.00 | 0.03 | 0.03 | 78 | 1016.0 |
| 20260903083357 | 56 | 68 | 0.0 | 6.0 | 0.00 | 0.03 | 0.03 | 78 | 1015.9 |
| 20260903082859 | 56 | 64 | 0.0 | 4.0 | 0.00 | 0.03 | 0.03 | 78 | 1015.8 |
| 20260903082407 | 56 | 344 | 0.0 | 2.0 | 0.00 | 0.03 | 0.03 | 78 | 1015.9 |
| 20260903080628 | 57 | 269 | 0.0 | 5.0 | 0.00 | 0.03 | 0.03 | 78 | 1015.6 |
| 20260903080117 | 57 | 28 | 0.0 | 5.0 | 0.00 | 0.03 | 0.03 | 77 | 1015.6 |
| 20260903075616 | 57 | 149 | 0.0 | 2.0 | 0.00 | 0.03 | 0.03 | 77 | 1015.4 |
| 20260903073816 | 58 | 326 | 0.0 | 5.0 | 0.00 | 0.03 | 0.03 | 76 | 1015.2 |
| 20260903073325 | 58 | 22 | 0.0 | 5.0 | 0.00 | 0.03 | 0.03 | 76 | 1015.2 |
| 20260903072153 | 59 | 30 | 1.0 | 5.0 | 0.00 | 0.03 | 0.03 | 75 | 1014.9 |
| 20260903071639 | 59 | 63 | 1.0 | 5.0 | 0.00 | 0.03 | 0.03 | 74 | 1014.8 |
| 20260903070453 | 60 | 38 | 1.0 | 6.0 | 0.00 | 0.03 | 0.03 | 73 | 1014.6 |
| 20260903065942 | 60 | 346 | 1.0 | 6.0 | 0.00 | 0.03 | 0.03 | 73 | 1014.5 |
| 20260903065425 | 60 | 288 | 1.0 | 6.0 | 0.00 | 0.03 | 0.03 | 72 | 1014.4 |
| 20260903064931 | 61 | 327 | 1.0 | 6.0 | 0.00 | 0.03 | 0.03 | 72 | 1014.3 |
| 20260903064439 | 61 | 337 | 0.0 | 5.0 | 0.00 | 0.03 | 0.03 | 72 | 1014.4 |
| 20260903063945 | 61 | 21 | 0.0 | 5.0 | 0.00 | 0.03 | 0.03 | 73 | 1014.2 |
| 20260903063439 | 61 | 269 | 0.0 | 5.0 | 0.00 | 0.03 | 0.03 | 73 | 1014.2 |
| 20260903062934 | 61 | 70 | 1.0 | 5.0 | 0.00 | 0.03 | 0.03 | 72 | 1014.1 |
| 20260903062417 | 61 | 112 | 1.0 | 4.0 | 0.00 | 0.03 | 0.03 | 71 | 1013.9 |
| 20260903061316 | 61 | 69 | 0.0 | 3.0 | 0.00 | 0.03 | 0.03 | 70 | 1013.9 |
| 20260903060802 | 62 | 54 | 0.0 | 3.0 | 0.00 | 0.03 | 0.03 | 70 | 1013.9 |
| 20260903060302 | 62 | 28 | 0.0 | 3.0 | 0.00 | 0.03 | 0.03 | 70 | 1013.8 |
| 20260903055754 | 61 | 66 | 0.0 | 3.0 | 0.00 | 0.03 | 0.03 | 72 | 1013.7 |
| 20260903055241 | 61 | 342 | 0.0 | 3.0 | 0.00 | 0.03 | 0.03 | 72 | 1013.6 |
| 20260903054112 | 61 | 279 | 0.0 | 3.0 | 0.00 | 0.03 | 0.03 | 72 | 1013.3 |
| 20260903053600 | 61 | 279 | 0.0 | 3.0 | 0.00 | 0.03 | 0.03 | 72 | 1013.3 |
| 20260903053104 | 62 | 325 | 0.0 | 2.0 | 0.00 | 0.03 | 0.03 | 71 | 1013.3 |
| 20260903052550 | 62 | 247 | 0.0 | 2.0 | 0.00 | 0.03 | 0.03 | 71 | 1013.3 |
| 20260903052040 | 63 | 326 | 0.0 | 2.0 | 0.00 | 0.03 | 0.03 | 70 | 1013.3 |
| 20260903051538 | 63 | 32 | 0.0 | 2.0 | 0.00 | 0.03 | 0.03 | 70 | 1013.3 |
| 20260903051042 | 63 | 193 | 0.0 | 4.0 | 0.00 | 0.03 | 0.03 | 71 | 1013.3 |
| 20260903050547 | 63 | 167 | 0.0 | 4.0 | 0.00 | 0.03 | 0.03 | 71 | 1013.2 |
| 20260903050034 | 63 | 307 | 0.0 | 4.0 | 0.00 | 0.03 | 0.03 | 71 | 1013.2 |
| 20260903043550 | 61 | 25 | 2.0 | 7.0 | 0.00 | 0.03 | 0.03 | 72 | 1013.0 |
| 20260903043033 | 61 | 309 | 2.0 | 9.0 | 0.00 | 0.03 | 0.03 | 72 | 1013.0 |
| 20260903042541 | 61 | 61 | 2.0 | 9.0 | 0.00 | 0.03 | 0.03 | 73 | 1012.8 |
| 20260903042034 | 61 | 311 | 3.0 | 9.0 | 0.00 | 0.03 | 0.03 | 73 | 1012.7 |
| 20260903041535 | 61 | 33 | 3.0 | 9.0 | 0.00 | 0.03 | 0.03 | 73 | 1012.6 |
| 20260903041019 | 61 | 346 | 3.0 | 9.0 | 0.00 | 0.03 | 0.03 | 74 | 1012.6 |
| 20260903040518 | 61 | 328 | 4.0 | 9.0 | 0.00 | 0.03 | 0.03 | 74 | 1012.5 |
| 20260903040027 | 61 | 321 | 4.0 | 9.0 | 0.00 | 0.03 | 0.03 | 72 | 1012.5 |
| 20260903035527 | 60 | 25 | 4.0 | 8.0 | 0.00 | 0.03 | 0.03 | 73 | 1012.4 |
| 20260903033802 | 60 | 263 | 2.0 | 7.0 | 0.00 | 0.03 | 0.03 | 76 | 1012.4 |
| 20260903033246 | 60 | 241 | 2.0 | 7.0 | 0.00 | 0.03 | 0.03 | 76 | 1012.4 |
| 20260903032753 | 60 | 42 | 1.0 | 7.0 | 0.00 | 0.03 | 0.03 | 77 | 1012.4 |
| 20260903032258 | 60 | 340 | 1.0 | 7.0 | 0.00 | 0.03 | 0.03 | 77 | 1012.3 |
| 20260903031751 | 60 | 306 | 1.0 | 7.0 | 0.00 | 0.03 | 0.03 | 78 | 1012.4 |
| 20260903031254 | 60 | 298 | 1.0 | 7.0 | 0.00 | 0.03 | 0.03 | 80 | 1012.4 |
| 20260903030106 | 59 | 262 | 2.0 | 8.0 | 0.00 | 0.03 | 0.03 | 81 | 1012.5 |
| 20260903025559 | 58 | 286 | 2.0 | 8.0 | 0.00 | 0.03 | 0.03 | 80 | 1012.5 |
| 20260903023813 | 57 | 296 | 4.0 | 10.0 | 0.00 | 0.03 | 0.03 | 82 | 1012.4 |
| 20260903022638 | 56 | 267 | 4.0 | 15.0 | 0.00 | 0.03 | 0.03 | 82 | 1012.2 |
| 20260903022123 | 56 | 255 | 6.0 | 15.0 | 0.00 | 0.03 | 0.03 | 82 | 1012.3 |
| 20260903021618 | 56 | 227 | 8.0 | 15.0 | 0.00 | 0.03 | 0.03 | 82 | 1012.3 |
| 20260903021115 | 56 | 298 | 7.0 | 15.0 | 0.00 | 0.03 | 0.03 | 82 | 1012.3 |
| 20260903020609 | 55 | 249 | 6.0 | 12.0 | 0.00 | 0.03 | 0.03 | 83 | 1012.2 |
| 20260903020119 | 55 | 268 | 5.0 | 12.0 | 0.00 | 0.03 | 0.03 | 84 | 1012.1 |
| 20260903015611 | 55 | 249 | 5.0 | 10.0 | 0.03 | 0.03 | 0.03 | 85 | 1012.1 |
| 20260903014506 | 55 | 72 | 5.0 | 10.0 | 0.03 | 0.03 | 0.03 | 85 | 1012.1 |
| 20260903014009 | 56 | 268 | 3.0 | 17.0 | 0.07 | 0.02 | 0.02 | 82 | 1012.2 |
| 20260903013516 | 56 | 268 | 3.0 | 17.0 | 0.07 | 0.02 | 0.02 | 82 | 1012.2 |
| 20260903013020 | 56 | 291 | 4.0 | 17.0 | 0.07 | 0.01 | 0.02 | 82 | 1012.2 |
| 20260903012508 | 58 | 125 | 3.0 | 17.0 | 0.00 | 0.01 | 0.01 | 81 | 1012.2 |
| 20260903012013 | 59 | 142 | 3.0 | 11.0 | 0.00 | 0.00 | 0.00 | 78 | 1012.0 |
| 20260903011505 | 60 | 255 | 3.0 | 11.0 | 0.00 | 0.00 | 0.00 | 76 | 1011.5 |
| 20260903011009 | 60 | 274 | 2.0 | 10.0 | 0.00 | 0.00 | 0.00 | 75 | 1011.4 |
| 20260903010458 | 60 | 283 | 3.0 | 10.0 | 0.00 | 0.00 | 0.00 | 77 | 1011.4 |
| 20260903005953 | 60 | 293 | 4.0 | 10.0 | 0.00 | 0.00 | 0.00 | 78 | 1011.5 |
| 20260903004824 | 58 | 284 | 0.0 | 5.0 | 0.00 | 0.00 | 0.00 | 82 | 1011.5 |
| 20260903004317 | 58 | 277 | 1.0 | 5.0 | 0.00 | 0.00 | 0.00 | 83 | 1011.4 |
| 20260903003804 | 58 | 282 | 1.0 | 9.0 | 0.00 | 0.00 | 0.00 | 83 | 1011.4 |
| 20260903002705 | 57 | 261 | 4.0 | 11.0 | 0.00 | 0.00 | 0.00 | 82 | 1011.4 |
| 20260903002204 | 57 | 267 | 4.0 | 11.0 | 0.00 | 0.00 | 0.00 | 81 | 1011.3 |
| 20260903001650 | 57 | 259 | 5.0 | 11.0 | 0.00 | 0.00 | 0.00 | 80 | 1011.3 |
| 20260903001135 | 58 | 317 | 5.0 | 11.0 | 0.00 | 0.00 | 0.00 | 79 | 1011.3 |
| 20260903000013 | 58 | 333 | 2.0 | 9.0 | 0.00 | 0.00 | 0.00 | 75 | 1011.1 |
| 20260902235519 | 58 | 333 | 2.0 | 9.0 | 0.00 | 0.00 | 0.00 | 75 | 1011.1 |
| 20260902235015 | 57 | 291 | 2.0 | 9.0 | 0.00 | 0.00 | 0.00 | 75 | 1011.1 |
| 20260902234508 | 57 | 282 | 2.0 | 8.0 | 0.00 | 0.00 | 0.00 | 75 | 1011.1 |
| 20260902234008 | 57 | 308 | 2.0 | 8.0 | 0.00 | 0.00 | 0.00 | 74 | 1010.8 |
| 20260902233509 | 57 | 32 | 2.0 | 10.0 | 0.00 | 0.00 | 0.00 | 74 | 1010.7 |
| 20260902233010 | 57 | 43 | 1.0 | 10.0 | 0.00 | 0.00 | 0.00 | 73 | 1010.8 |
| 20260902232513 | 56 | 353 | 2.0 | 10.0 | 0.00 | 0.00 | 0.00 | 73 | 1010.6 |
| 20260902231954 | 56 | 58 | 3.0 | 11.0 | 0.00 | 0.00 | 0.00 | 73 | 1010.7 |
| 20260902230848 | 56 | 288 | 3.0 | 11.0 | 0.00 | 0.00 | 0.00 | 72 | 1010.7 |
| 20260902230346 | 56 | 357 | 2.0 | 11.0 | 0.00 | 0.00 | 0.00 | 72 | 1010.6 |
| 20260902225843 | 56 | 295 | 3.0 | 10.0 | 0.00 | 0.00 | 0.00 | 73 | 1010.6 |
| 20260902225349 | 56 | 338 | 3.0 | 10.0 | 0.00 | 0.00 | 0.00 | 72 | 1010.5 |
| 20260902224857 | 56 | 42 | 3.0 | 10.0 | 0.00 | 0.00 | 0.00 | 73 | 1010.3 |
| 20260902224402 | 56 | 115 | 2.0 | 9.0 | 0.00 | 0.00 | 0.00 | 73 | 1010.2 |
| 20260902223850 | 56 | 27 | 2.0 | 9.0 | 0.00 | 0.00 | 0.00 | 73 | 1010.2 |
| 20260902223352 | 55 | 44 | 2.0 | 8.0 | 0.00 | 0.00 | 0.00 | 73 | 1010.2 |
| 20260902222841 | 55 | 344 | 2.0 | 8.0 | 0.00 | 0.00 | 0.00 | 73 | 1010.3 |
| 20260902222345 | 55 | 0 | 2.0 | 8.0 | 0.00 | 0.00 | 0.00 | 73 | 1010.2 |
| 20260902221826 | 55 | 21 | 2.0 | 8.0 | 0.00 | 0.00 | 0.00 | 73 | 1010.1 |
| 20260902221315 | 55 | 312 | 2.0 | 7.0 | 0.00 | 0.00 | 0.00 | 73 | 1010.1 |
| 20260902220800 | 55 | 333 | 1.0 | 7.0 | 0.00 | 0.00 | 0.00 | 74 | 1010.2 |
| 20260902220253 | 55 | 49 | 1.0 | 6.0 | 0.00 | 0.00 | 0.00 | 74 | 1010.1 |
| 20260902215742 | 54 | 1 | 0.0 | 5.0 | 0.00 | 0.00 | 0.00 | 74 | 1010.1 |
| 20260902215233 | 54 | 49 | 1.0 | 5.0 | 0.00 | 0.00 | 0.00 | 74 | 1010.2 |
| 20260902214718 | 54 | 68 | 1.0 | 5.0 | 0.00 | 0.00 | 0.00 | 75 | 1010.2 |
| 20260902213557 | 53 | 47 | 0.0 | 3.0 | 0.00 | 0.00 | 0.00 | 75 | 1009.9 |
| 20260902213042 | 53 | 23 | 1.0 | 3.0 | 0.00 | 0.00 | 0.00 | 75 | 1010.0 |
| 20260902212536 | 53 | 35 | 0.0 | 3.0 | 0.00 | 0.00 | 0.00 | 75 | 1009.8 |
| 20260902212019 | 52 | 329 | 0.0 | 3.0 | 0.00 | 0.00 | 0.00 | 75 | 1009.7 |
| 20260902211509 | 52 | 43 | 0.0 | 2.0 | 0.00 | 0.00 | 0.00 | 75 | 1009.7 |
| 20260902210347 | 52 | 9 | 0.0 | 3.0 | 0.00 | 0.00 | 0.00 | 74 | 1009.5 |
| 20260902205833 | 53 | 32 | 0.0 | 3.0 | 0.00 | 0.00 | 0.00 | 73 | 1009.4 |
| 20260902204712 | 53 | 2 | 1.0 | 6.0 | 0.00 | 0.00 | 0.00 | 73 | 1009.2 |
| 20260902203556 | 53 | 23 | 1.0 | 6.0 | 0.00 | 0.00 | 0.00 | 73 | 1009.0 |
| 20260902203045 | 53 | 328 | 1.0 | 7.0 | 0.00 | 0.00 | 0.00 | 73 | 1009.0 |
| 20260902202547 | 53 | 327 | 1.0 | 7.0 | 0.00 | 0.00 | 0.00 | 73 | 1009.0 |
| 20260902202031 | 53 | 23 | 1.0 | 7.0 | 0.00 | 0.00 | 0.00 | 73 | 1009.0 |
| 20260902201518 | 53 | 338 | 1.0 | 7.0 | 0.00 | 0.00 | 0.00 | 73 | 1009.1 |
| 20260902201008 | 53 | 304 | 2.0 | 7.0 | 0.00 | 0.00 | 0.00 | 73 | 1009.0 |
| 20260902195831 | 53 | 9 | 1.0 | 7.0 | 0.00 | 0.00 | 0.00 | 72 | 1009.2 |
| 20260902195330 | 53 | 343 | 2.0 | 7.0 | 0.00 | 0.00 | 0.00 | 72 | 1009.1 |
| 20260902194812 | 53 | 331 | 1.0 | 6.0 | 0.00 | 0.00 | 0.00 | 73 | 1008.9 |
| 20260902194312 | 53 | 267 | 1.0 | 6.0 | 0.00 | 0.00 | 0.00 | 73 | 1008.9 |
| 20260902193801 | 52 | 350 | 0.0 | 6.0 | 0.00 | 0.00 | 0.00 | 73 | 1008.9 |
| 20260902193245 | 52 | 331 | 1.0 | 6.0 | 0.00 | 0.00 | 0.00 | 73 | 1009.2 |
| 20260902192726 | 52 | 355 | 1.0 | 6.0 | 0.00 | 0.00 | 0.00 | 72 | 1009.1 |
| 20260902192214 | 52 | 6 | 1.0 | 5.0 | 0.00 | 0.00 | 0.00 | 72 | 1009.1 |
| 20260902191658 | 52 | 31 | 0.0 | 4.0 | 0.00 | 0.00 | 0.00 | 72 | 1009.0 |
| 20260902191207 | 53 | 8 | 0.0 | 4.0 | 0.00 | 0.00 | 0.00 | 71 | 1008.8 |
| 20260902190023 | 53 | 2 | 1.0 | 7.0 | 0.00 | 0.00 | 0.00 | 70 | 1008.8 |
| 20260902185524 | 54 | 293 | 2.0 | 7.0 | 0.00 | 0.00 | 0.00 | 69 | 1008.6 |
| 20260902185012 | 54 | 297 | 1.0 | 7.0 | 0.00 | 0.00 | 0.00 | 69 | 1008.6 |
| 20260902184520 | 54 | 309 | 2.0 | 7.0 | 0.00 | 0.00 | 0.00 | 69 | 1008.4 |
| 20260902184015 | 54 | 309 | 2.0 | 7.0 | 0.00 | 0.00 | 0.00 | 69 | 1008.4 |
| 20260902183506 | 54 | 42 | 2.0 | 6.0 | 0.00 | 0.00 | 0.00 | 69 | 1008.4 |
| 20260902182948 | 54 | 272 | 1.0 | 6.0 | 0.00 | 0.00 | 0.00 | 69 | 1008.6 |
| 20260902182454 | 54 | 313 | 1.0 | 6.0 | 0.00 | 0.00 | 0.00 | 69 | 1008.5 |
| 20260902181317 | 54 | 288 | 1.0 | 8.0 | 0.00 | 0.00 | 0.00 | 69 | 1008.3 |
| 20260902180821 | 54 | 332 | 2.0 | 8.0 | 0.00 | 0.00 | 0.00 | 69 | 1008.3 |
| 20260902180318 | 54 | 70 | 3.0 | 8.0 | 0.00 | 0.00 | 0.00 | 69 | 1008.4 |
| 20260902175809 | 54 | 343 | 3.0 | 7.0 | 0.00 | 0.00 | 0.00 | 69 | 1008.5 |
| 20260902175254 | 54 | 296 | 2.0 | 6.0 | 0.00 | 0.00 | 0.00 | 69 | 1008.4 |
| 20260902174802 | 54 | 314 | 3.0 | 9.0 | 0.00 | 0.00 | 0.00 | 69 | 1008.5 |
| 20260902174247 | 54 | 12 | 2.0 | 9.0 | 0.00 | 0.00 | 0.00 | 69 | 1008.6 |
| 20260902173733 | 54 | 319 | 2.0 | 9.0 | 0.00 | 0.00 | 0.00 | 69 | 1008.5 |
| 20260902173238 | 54 | 125 | 2.0 | 9.0 | 0.00 | 0.00 | 0.00 | 70 | 1008.6 |
| 20260902172720 | 54 | 283 | 2.0 | 8.0 | 0.00 | 0.00 | 0.00 | 70 | 1008.6 |
| 20260902172218 | 54 | 352 | 2.0 | 8.0 | 0.00 | 0.00 | 0.00 | 70 | 1008.7 |
| 20260902171715 | 54 | 359 | 1.0 | 7.0 | 0.00 | 0.00 | 0.00 | 70 | 1008.8 |
| 20260902171203 | 54 | 295 | 1.0 | 7.0 | 0.00 | 0.00 | 0.00 | 70 | 1008.8 |
| 20260902170028 | 54 | 2 | 1.0 | 8.0 | 0.00 | 0.00 | 0.00 | 70 | 1008.8 |
| 20260902165509 | 54 | 272 | 1.0 | 8.0 | 0.00 | 0.00 | 0.00 | 71 | 1008.9 |
| 20260902165009 | 54 | 286 | 1.0 | 8.0 | 0.00 | 0.00 | 0.00 | 71 | 1008.9 |
| 20260902163211 | 54 | 2 | 1.0 | 6.0 | 0.00 | 0.00 | 0.00 | 71 | 1009.3 |
| 20260902162712 | 54 | 47 | 1.0 | 6.0 | 0.00 | 0.00 | 0.00 | 71 | 1009.3 |
| 20260902162208 | 54 | 324 | 2.0 | 8.0 | 0.00 | 0.00 | 0.00 | 71 | 1009.4 |
| 20260902161716 | 54 | 301 | 2.0 | 8.0 | 0.00 | 0.00 | 0.00 | 72 | 1009.5 |
| 20260902161225 | 54 | 248 | 2.0 | 8.0 | 0.00 | 0.00 | 0.00 | 72 | 1009.5 |
| 20260902160734 | 54 | 312 | 2.0 | 8.0 | 0.00 | 0.00 | 0.00 | 72 | 1009.6 |
| 20260902160226 | 54 | 306 | 2.0 | 7.0 | 0.00 | 0.00 | 0.00 | 73 | 1009.6 |
| 20260902155706 | 53 | 333 | 1.0 | 7.0 | 0.00 | 0.00 | 0.00 | 73 | 1009.7 |
| 20260902155210 | 53 | 347 | 2.0 | 8.0 | 0.00 | 0.00 | 0.00 | 73 | 1009.6 |
| 20260902154700 | 53 | 13 | 1.0 | 8.0 | 0.00 | 0.00 | 0.00 | 74 | 1009.6 |
| 20260902152921 | 53 | 338 | 2.0 | 6.0 | 0.00 | 0.00 | 0.00 | 74 | 1009.7 |
| 20260902151803 | 53 | 27 | 0.0 | 5.0 | 0.00 | 0.00 | 0.00 | 75 | 1009.7 |
| 20260902151306 | 53 | 315 | 1.0 | 5.0 | 0.00 | 0.00 | 0.00 | 75 | 1009.7 |
| 20260902150139 | 53 | 303 | 1.0 | 6.0 | 0.00 | 0.00 | 0.00 | 75 | 1009.7 |
| 20260902145635 | 53 | 342 | 1.0 | 6.0 | 0.00 | 0.00 | 0.00 | 75 | 1009.7 |
| 20260902145116 | 53 | 321 | 1.0 | 6.0 | 0.00 | 0.00 | 0.00 | 75 | 1009.7 |
| 20260902144606 | 53 | 339 | 1.0 | 6.0 | 0.00 | 0.00 | 0.00 | 75 | 1009.7 |
| 20260902143440 | 53 | 8 | 1.0 | 5.0 | 0.00 | 0.00 | 0.00 | 74 | 1009.6 |
| 20260902142933 | 53 | 283 | 1.0 | 5.0 | 0.00 | 0.00 | 0.00 | 74 | 1009.7 |
| 20260902142422 | 53 | 16 | 0.0 | 5.0 | 0.00 | 0.00 | 0.00 | 74 | 1009.7 |
| 20260902141911 | 53 | 4 | 0.0 | 5.0 | 0.00 | 0.00 | 0.00 | 74 | 1009.9 |
| 20260902141356 | 53 | 341 | 0.0 | 1.0 | 0.00 | 0.00 | 0.00 | 72 | 1009.9 |
| 20260902140840 | 53 | 354 | 0.0 | 5.0 | 0.00 | 0.00 | 0.00 | 71 | 1010.0 |
| 20260902140340 | 54 | 331 | 0.0 | 2.0 | 0.00 | 0.00 | 0.00 | 71 | 1010.0 |
| 20260902135828 | 54 | 355 | 0.0 | 2.0 | 0.00 | 0.00 | 0.00 | 71 | 1009.9 |
| 20260902135321 | 54 | 3 | 0.0 | 4.0 | 0.00 | 0.00 | 0.00 | 71 | 1010.0 |
| 20260902134831 | 54 | 331 | 0.0 | 4.0 | 0.00 | 0.00 | 0.00 | 70 | 1010.0 |
| 20260902134324 | 54 | 286 | 0.0 | 4.0 | 0.00 | 0.00 | 0.00 | 70 | 1010.0 |
| 20260902133813 | 54 | 281 | 0.0 | 4.0 | 0.00 | 0.00 | 0.00 | 70 | 1010.1 |
| 20260902133257 | 54 | 306 | 0.0 | 5.0 | 0.00 | 0.00 | 0.00 | 70 | 1010.1 |
| 20260902132753 | 54 | 309 | 1.0 | 5.0 | 0.00 | 0.00 | 0.00 | 70 | 1010.1 |
| 20260902132249 | 54 | 8 | 1.0 | 5.0 | 0.00 | 0.00 | 0.00 | 70 | 1010.1 |
| 20260902131751 | 55 | 291 | 1.0 | 6.0 | 0.00 | 0.00 | 0.00 | 70 | 1010.2 |
| 20260902131244 | 55 | 272 | 1.0 | 6.0 | 0.00 | 0.00 | 0.00 | 70 | 1010.3 |
| 20260902130109 | 55 | 301 | 1.0 | 6.0 | 0.00 | 0.00 | 0.00 | 70 | 1010.5 |
| 20260902125555 | 55 | 340 | 0.0 | 6.0 | 0.00 | 0.00 | 0.00 | 70 | 1010.5 |
| 20260902125058 | 55 | 359 | 1.0 | 6.0 | 0.00 | 0.00 | 0.00 | 70 | 1010.6 |
| 20260902124545 | 55 | 295 | 1.0 | 6.0 | 0.00 | 0.00 | 0.00 | 69 | 1010.7 |
| 20260902124051 | 55 | 295 | 1.0 | 6.0 | 0.00 | 0.00 | 0.00 | 69 | 1010.7 |
| 20260902123528 | 55 | 317 | 1.0 | 6.0 | 0.00 | 0.00 | 0.00 | 69 | 1010.8 |
| 20260902123030 | 55 | 35 | 1.0 | 5.0 | 0.00 | 0.00 | 0.00 | 70 | 1010.8 |
| 20260902122516 | 55 | 295 | 1.0 | 8.0 | 0.00 | 0.00 | 0.00 | 70 | 1010.9 |
| 20260902122001 | 55 | 302 | 1.0 | 8.0 | 0.00 | 0.00 | 0.00 | 71 | 1010.9 |
| 20260902121442 | 55 | 309 | 1.0 | 8.0 | 0.00 | 0.00 | 0.00 | 69 | 1011.1 |
| 20260902120933 | 55 | 320 | 1.0 | 8.0 | 0.00 | 0.00 | 0.00 | 68 | 1011.1 |
| 20260902115815 | 56 | 302 | 0.0 | 4.0 | 0.00 | 0.00 | 0.00 | 68 | 1011.2 |
| 20260902115300 | 56 | 341 | 0.0 | 4.0 | 0.00 | 0.00 | 0.00 | 68 | 1011.1 |
| 20260902114143 | 56 | 324 | 0.0 | 5.0 | 0.00 | 0.00 | 0.00 | 67 | 1011.1 |
| 20260902113650 | 57 | 339 | 1.0 | 5.0 | 0.00 | 0.00 | 0.00 | 67 | 1011.1 |
| 20260902113139 | 57 | 250 | 1.0 | 7.0 | 0.00 | 0.00 | 0.00 | 68 | 1011.1 |
| 20260902112629 | 57 | 38 | 1.0 | 7.0 | 0.00 | 0.00 | 0.00 | 68 | 1011.1 |
| 20260902111457 | 57 | 32 | 1.0 | 6.0 | 0.00 | 0.00 | 0.00 | 69 | 1011.2 |